Weather Roundup
Issued by NWS Springfield, MO

Home | Current Version | Previous Version | Text Only | Print | Product List | Glossary On
Versions: 1 2 3 4 5 6 7 8 9 10 11 12 13 14 15 16 17 18 19 20 21 22 23 24 25 26 27 28 29 30 31 32 33 34 35 36 37 38 39 40 41 42 43 44 45 46 47 48 49 50
000
NZUS99 KSGF 220707
HRRSGF

HOURLY WEATHER
NATIONAL WEATHER SERVICE SPRINGFIELD MO
200 AM CDT FRI AUG 22 2014

......SGF CWA......

CITY           SKY/WX    TMP DP  RH WIND       PRES   REMARKS
SPRINGFIELD    CLEAR     77  70  79 S9        30.02S
JOPLIN         CLEAR     80  71  74 S12       29.99S
WEST PLAINS    CLEAR     74  67  78 SW3       30.06F
ROLLA          CLEAR     76  67  73 S7        30.01R
OSAGE BEACH    CLEAR     79  66  65 S7        30.00S
BRANSON        CLEAR     75  72  88 S5        30.05S

......SURROUNDING SGF CWA......

CITY           SKY/WX    TMP DP  RH WIND       PRES   REMARKS
CHANUTE        CLEAR     80  71  74 S9        29.96R
PARSONS        CLEAR     80  71  74 S7        29.97S
COFFEYVILLE    CLEAR     82  72  71 S10       29.95S
EMPORIA        CLEAR     80  71  74 S13G23    29.92S
GROVE OK       CLEAR     79  72  78 S5        30.00S
ROGERS AR      CLEAR     76  70  82 SE6       30.05R
SILOAM SPRINGS CLEAR     75  66  73 S5        30.04R
HARRISON AR    CLEAR     75  72  90 SE5       30.05S
NEAR YELLVILLE CLEAR     75  66  73 CALM      30.04R

......KANSAS AND MISSOURI......

CITY           SKY/WX    TMP DP  RH WIND       PRES   REMARKS
KANSAS CTY INT PTCLDY    82  71  69 S16       29.90F
DOWNTOWN KC    CLEAR     84  71  65 S14       29.89F
COLUMBIA       CLEAR     77  70  79 SW10      29.98R
SEDALIA        CLEAR     80  70  71 S10       29.97F
ST JOSEPH      PTCLDY    81  73  76 S9        29.88F
ST LOUIS       PTCLDY    85  70  60 SW15      29.96F
SPIRIT OF STL  CLEAR     80  69  69 SW9       29.95S
KIRKSVILLE     CLEAR     81  72  74 SW9       29.92S
WICHITA        PTCLDY    82  70  66 S14       29.92F
TOPEKA         MOCLDY    85  73  67 VRB7      29.90R HX  91
OLATHE         CLEAR     79  71  76 S10       29.92F

......TENNESSEE......

CITY           SKY/WX    TMP DP  RH WIND       PRES   REMARKS
MEMPHIS        CLEAR     80  74  81 CALM      30.05S
NASHVILLE      CLEAR     77  73  87 S3        30.08F

......ARKANSAS.......

CITY           SKY/WX    TMP DP  RH WIND       PRES   REMARKS
FAYETTEVILLE   CLEAR     77  72  84 S7        30.04R
FT SMITH       CLEAR     79  74  84 NE5       29.99S
LITTLE ROCK    CLEAR     80  72  76 SW8       30.02F

......OKLAHOMA.......

CITY           SKY/WX    TMP DP  RH WIND       PRES   REMARKS
TULSA          CLEAR     83  71  67 S12       29.95S
PONCA CITY     CLEAR     83  69  62 S10G20    29.93S
MCALESTER      CLEAR     83  70  64 S8        29.99S
OKLAHOMA CITY  CLEAR     79  66  64 S10       29.95S

......IOWA............

CITY           SKY/WX    TMP DP  RH WIND       PRES   REMARKS
DES MOINES     CLOUDY    80  75  84 S7        29.85S
QUAD CITIES    MOCLDY    74  72  93 NE7       29.86F FOG

......ILLINOIS........

CITY           SKY/WX    TMP DP  RH WIND       PRES   REMARKS
QUINCY         CLEAR     78  73  84 SW9       29.90F
CHICAGO        TSTM      74  70  87 SE8       29.89F FOG



USA.gov is the U.S. government's official web portal to all federal, state and local government web resources and services.